EA3GYL La Torregassa ES current weather conditions

sailwx.info

Wind from 349 at 3 knots gusting 7

Air temperature 20.0° C
Dewpoint 17.0° C

Last reported at 2015-Jul-31 22:20 UTC.
Time now 2015-Aug-01 03:30 UTC

Location: N 41°17' E 001°31'.
View on Google Maps.

See reports from other nearby stations

  
Tides and Currents Weather Stations Pressure Air Temp Water Temp Dewpoint Dewpoint Depression Visibility Wind Speed Wind Dir Waves Ship Positions
date/time (UTC)wind fromknots sea level pressurealtimeterstation pressurevisibilityair tempwater tempwave heightnotes
2015-Jul-31 22:20 349 3 gusting 7 20.0
2015-Jul-31 22:10 356 2 gusting 6 20.0
2015-Jul-31 22:00 014 1 gusting 4 20.0
2015-Jul-31 21:50 004 1 gusting 4 20.0
2015-Jul-31 20:30 356 1 gusting 6 20.6
2015-Jul-31 20:20 003 1 gusting 5 20.6
2015-Jul-31 20:10 313 1 gusting 5 20.6
2015-Jul-31 20:00 003 1 gusting 6 21.1
2015-Jul-31 19:50 031 2 gusting 7 21.7
2015-Jul-31 19:40 344 1 gusting 6 21.7
2015-Jul-31 19:30 319 1 gusting 6 21.7
2015-Jul-31 19:20 304 0 gusting 4 21.7
2015-Jul-31 19:10 295 2 gusting 4 21.7
2015-Jul-31 19:00 267 3 gusting 11 21.7
2015-Jul-31 18:50 309 3 gusting 7 21.1
2015-Jul-31 18:40 034 2 gusting 9 21.7
2015-Jul-31 18:30 069 0 gusting 4 22.2
2015-Jul-31 18:20 142 0 gusting 1 22.2
2015-Jul-31 18:10 187 1 gusting 4 22.8
2015-Jul-31 18:00 123 0 gusting 2 23.3
2015-Jul-31 17:50 147 1 gusting 2 23.3
2015-Jul-31 17:40 127 1 gusting 1 23.3
2015-Jul-31 10:40 113 2 gusting 6 23.3
2015-Jul-31 10:30 099 3 gusting 6 23.3
2015-Jul-31 10:20 094 3 gusting 7 23.9
2015-Jul-31 10:10 087 3 gusting 7 23.9
2015-Jul-31 10:00 083 3 gusting 6 23.9
2015-Jul-31 09:50 080 2 gusting 6 23.9
2015-Jul-31 09:40 090 2 gusting 6 23.9
2015-Jul-31 09:30 070 3 gusting 6 23.9
2015-Jul-31 09:20 058 3 gusting 5 23.9
2015-Jul-31 08:50 075 1 gusting 5 22.8
2015-Jul-31 08:20 22.8
2015-Jul-31 08:10 083 22.8
2015-Jul-31 08:00 070 0 gusting 1 22.8
2015-Jul-31 07:50 073 0 gusting 0 22.2
2015-Jul-31 07:40 069 22.2
2015-Jul-31 07:30 069 0 gusting 1 22.2
2015-Jul-31 07:20 027 0 gusting 3 22.2
2015-Jul-31 07:10 016 0 gusting 1 22.2
2015-Jul-31 07:00 003 1 gusting 4 22.2
2015-Jul-31 06:50 010 0 gusting 3 21.7
2015-Jul-31 06:40 347 0 gusting 1 21.7
2015-Jul-30 22:10 246 0 gusting 3 21.7
2015-Jul-30 22:00 21.7
2015-Jul-30 21:50 21.7
2015-Jul-30 21:40 21.7
2015-Jul-30 21:30 21.7
2015-Jul-30 21:20 21.7
2015-Jul-30 21:10 21.7
2015-Jul-30 21:00 22.2
2015-Jul-30 20:50 22.2
2015-Jul-30 20:40 22.2
2015-Jul-30 20:30 22.2
2015-Jul-30 19:50 100 0 gusting 1 22.2
2015-Jul-30 19:40 101 0 gusting 2 22.2
2015-Jul-30 19:30 106 22.2
2015-Jul-30 19:20 173 0 gusting 2 22.2
2015-Jul-30 19:10 109 0 gusting 1 22.2
2015-Jul-30 19:00 100 0 gusting 2 22.2
2015-Jul-30 18:50 084 0 gusting 1 22.2
2015-Jul-30 18:40 099 22.2
2015-Jul-30 18:30 096 22.2
2015-Jul-30 18:20 094 0 gusting 2 22.2
2015-Jul-30 18:10 088 1 gusting 1 22.2
2015-Jul-30 18:00 102 2 gusting 5 22.8
2015-Jul-30 17:50 105 1 gusting 5 22.8
2015-Jul-30 17:40 099 2 gusting 4 22.8
2015-Jul-30 17:30 103 3 gusting 6 22.8
2015-Jul-30 17:20 104 2 gusting 6 22.8
2015-Jul-30 17:10 108 1 gusting 6 22.8
2015-Jul-30 17:00 101 1 gusting 5 22.8
2015-Jul-30 16:50 079 1 gusting 2 23.3
2015-Jul-30 16:40 102 3 gusting 6 23.3
2015-Jul-30 16:30 094 4 gusting 10 23.3
2015-Jul-30 16:20 104 5 gusting 9 23.3
2015-Jul-30 16:10 114 6 gusting 10 23.3
2015-Jul-30 16:00 112 4 gusting 10 23.9
2015-Jul-30 15:50 108 2 gusting 7 25.0
2015-Jul-30 15:40 110 2 gusting 6 25.0
2015-Jul-30 15:30 110 1 gusting 5 25.6
2015-Jul-30 15:20 058 1 gusting 5 25.0
2015-Jul-30 15:10 065 2 gusting 6 25.0
2015-Jul-30 15:00 072 3 gusting 6 24.4
2015-Jul-30 14:50 070 2 gusting 6 25.0
2015-Jul-30 14:40 054 2 gusting 5 24.4
2015-Jul-30 14:30 067 3 gusting 8 24.4
2015-Jul-30 14:20 097 5 gusting 8 23.9
2015-Jul-30 14:10 101 6 gusting 11 23.3
2015-Jul-30 11:50 129 5 gusting 9 23.9
2015-Jul-30 11:40 137 5 gusting 11 24.4
2015-Jul-30 11:30 117 4 gusting 9 25.6
2015-Jul-30 11:20 100 5 gusting 10 25.6
2015-Jul-30 11:10 099 4 gusting 11 26.1
2015-Jul-30 11:00 100 4 gusting 8 26.1
2015-Jul-30 08:30 050 2 gusting 6 25.0
2015-Jul-30 08:20 062 2 gusting 4 25.0
2015-Jul-30 08:10 062 1 gusting 6 25.0
2015-Jul-30 08:00 009 1 gusting 5 25.0
2015-Jul-30 07:50 045 0 gusting 2 25.0
2015-Jul-30 07:40 036 1 gusting 5 25.0
2015-Jul-30 07:30 067 25.0
2015-Jul-30 07:20 081 0 gusting 1 24.4
2015-Jul-30 07:10 083 0 gusting 1 24.4
2015-Jul-30 07:00 087 0 gusting 1 24.4
2015-Jul-30 06:50 090 24.4
2015-Jul-30 06:40 24.4
2015-Jul-30 06:30 088 0 gusting 1 24.4
2015-Jul-30 06:20 093 0 gusting 2 23.9
2015-Jul-30 06:10 094 0 gusting 2 23.9
2015-Jul-30 06:00 064 0 gusting 2 23.9
2015-Jul-30 05:50 075 0 gusting 2 23.3
2015-Jul-30 05:40 23.3
2015-Jul-30 05:30 23.3